Погода в Коимбре

Португалия     40°12′19″N   8°25′57″W
В апреле 2022 года жителям России запретили посещать сайт meteo.paraplan.net по решению Генеральной прокуратуры. Аудитория сайта уменьшилась в 10 раз. Владельцы сайта не видят смысла в поддержке погодного сервера в таких условиях. Сайт будет закрыт в октябре.
темп.,
°C
ветер,
м/с
пор.,
м/с
влажн.,
%
обл.,
%
осадки,
мм/ч
давл.,
гПа
погр.,
м
4 октября, вт
вт401:00+15св11750 0.0 102111
04:00+14в11660 0.0 102011
07:00+14св11660 0.0 102111
10:00+21с12390 0.0 1022257
13:00+29ссз33215 0.0 1021894
16:00+28сз43246 0.0 1020813
19:00+20сз23470 0.0 102054
22:00+14ссз11790 0.0 102211
5 октября, ср
ср501:00+13с11840 0.0 102210
04:00+13всв11750 0.0 102010
07:00+12ссв11710 0.0 102110
10:00+19с23460 0.0 1022305
13:00+26ссз44290 0.0 1022974
16:00+25ссз55360 0.0 1021866
19:00+18сз36645 0.0 1022222
22:00+14сз129690 0.0 102363
6 октября, чт
чт601:00+13юв119871 0.0 102311
04:00+13в1188100 0.0 102112
07:00+14всв2268100 0.0 102127
10:00+20в3547100 0.0 1022344
13:00+28вюв122799 0.0 1021807
16:00+31зсз122198 0.0 10191139
19:00+20зсз2253100 0.0 102029
22:00+18св116386 0.0 102111
7 октября, пт
пт701:00+17всв116726 0.1 102011
04:00+17всв116391 0.0 101911
07:00+17в11665 0.0 101911
10:00+24в22445 0.0 1020258
13:00+31ююз022639 0.0 10191444
16:00+32сз232315 0.0 10162356
19:00+22сз245026 0.0 101777
22:00+18св11625 0.0 101811
8 октября, сб
сб801:00+18всв11628 0.0 101811
04:00+18всв11610 0.0 101811
07:00+17в22590 0.0 101818
10:00+25всв12360 0.0 1019238
13:00+32ссз12250 0.0 10171714
16:00+31сз54264 0.0 10151445
19:00+22ссз24490 0.0 101777
22:00+18ссз116312 0.0 101811